This is the latest recevied weather packets stored in our database for station/object KN6ETB-1. If no packets are shown the sender has not sent any weather packets the latest 10 day(s).
| Time | Temp. | Humidity | Pressure | Rain* | Wind** | Luminosity | Snow |
|---|---|---|---|---|---|---|---|
| 1788146984 | 69° F | 61% | 755.8 mmHg | 0 in | - | 0 W/m² | - |
| 1788146684 | 70° F | 60% | 755.5 mmHg | 0 in | - | 0 W/m² | - |
| 1788146379 | 71° F | 58% | 755.6 mmHg | 0 in | - | 0 W/m² | - |
| 1788146079 | 71° F | 58% | 755.6 mmHg | 0 in | - | 0 W/m² | - |
| 1788145778 | 71° F | 57% | 755.5 mmHg | 0 in | - | 0 W/m² | - |
| 1788145477 | 71° F | 57% | 755.5 mmHg | 0 in | - | 0 W/m² | - |
| 1788145176 | 72° F | 57% | 755.5 mmHg | 0 in | - | 0 W/m² | - |
| 1788144875 | 72° F | 57% | 755.4 mmHg | 0 in | - | 0 W/m² | - |
| 1788144571 | 72° F | 56% | 755.5 mmHg | 0 in | - | 0 W/m² | - |
| 1788144270 | 73° F | 56% | 755.5 mmHg | 0 in | - | 0 W/m² | - |
| 1788143965 | 73° F | 55% | 755.5 mmHg | 0 in | - | 2 W/m² | - |
| 1788143664 | 74° F | 54% | 755.5 mmHg | 0 in | - | 5 W/m² | - |
| 1788143359 | 74° F | 54% | 755.5 mmHg | 0 in | - | 7 W/m² | - |
| 1788143058 | 75° F | 53% | 755.5 mmHg | 0 in | - | 10 W/m² | - |
| 1788142752 | 75° F | 52% | 755.5 mmHg | 0 in | - | 15 W/m² | - |
| 1788142452 | 76° F | 52% | 755.8 mmHg | 0 in | - | 18 W/m² | - |
| 1788142148 | 77° F | 51% | 755.6 mmHg | 0 in | - | 22 W/m² | - |
| 1788141847 | 78° F | 50% | 755.6 mmHg | 0 in | - | 26 W/m² | - |
| 1788141542 | 78° F | 50% | 755.6 mmHg | 0 in | - | 31 W/m² | - |
| 1788141238 | 78° F | 49% | 755.6 mmHg | 0 in | - | 26 W/m² | - |
| 1788140933 | 79° F | 49% | 755.8 mmHg | 0 in | - | 27 W/m² | - |
| 1788140627 | 79° F | 48% | 755.8 mmHg | 0 in | - | 28 W/m² | - |
| 1788140324 | 79° F | 48% | 755.8 mmHg | 0 in | - | 32 W/m² | - |
| 1788140018 | 80° F | 46% | 755.8 mmHg | 0 in | - | 68 W/m² | - |
| 1788139712 | 82° F | 45% | 755.8 mmHg | 0 in | - | 78 W/m² | - |
* Rain latest hour (hover to see other rain measurements)
** Current wind speed in m/s (hover to see current wind gust speed)